Year,Month,Day,Hour,Minute,Value (Times are PST for temperature in C)
2011,11,20,09,15,0.30
2011,11,20,09,16,0.30
2011,11,20,09,17,0.30
2011,11,20,09,18,0.40
2011,11,20,09,19,0.40
2011,11,20,09,20,0.50
2011,11,20,09,21,0.50
2011,11,20,09,22,0.60
2011,11,20,09,23,0.60
2011,11,20,09,24,0.70
2011,11,20,09,25,0.80
2011,11,20,09,26,0.80
2011,11,20,09,27,0.90
2011,11,20,09,28,0.90
2011,11,20,09,29,1.00
2011,11,20,09,30,1.00
2011,11,20,09,31,1.10
2011,11,20,09,32,1.10
2011,11,20,09,33,1.20
2011,11,20,09,34,1.20
2011,11,20,09,35,1.30
2011,11,20,09,36,1.30
2011,11,20,09,37,1.30
2011,11,20,09,38,1.30
2011,11,20,09,39,1.30
2011,11,20,09,40,1.30
2011,11,20,09,41,1.30
2011,11,20,09,42,1.30
2011,11,20,09,43,1.40
2011,11,20,09,44,1.40
2011,11,20,09,45,1.40
2011,11,20,09,46,1.50
2011,11,20,09,47,1.50
2011,11,20,09,48,1.50
2011,11,20,09,49,1.60
2011,11,20,09,50,1.60
2011,11,20,09,51,1.60
2011,11,20,09,52,1.60
2011,11,20,09,53,1.70
2011,11,20,09,54,1.70
2011,11,20,09,55,1.70
2011,11,20,09,56,1.70
2011,11,20,09,57,1.70
2011,11,20,09,58,1.70
2011,11,20,09,59,1.80
2011,11,20,10,00,1.80
2011,11,20,10,01,1.80
2011,11,20,10,02,1.80
2011,11,20,10,03,1.80
2011,11,20,10,04,1.80
2011,11,20,10,05,1.80
2011,11,20,10,06,1.80
2011,11,20,10,07,1.80
2011,11,20,10,08,1.90
2011,11,20,10,09,1.90
2011,11,20,10,10,1.90
2011,11,20,10,11,1.90
2011,11,20,10,12,2.00
2011,11,20,10,13,2.00
2011,11,20,10,14,2.00
2011,11,20,10,15,2.10
2011,11,20,10,16,2.10
2011,11,20,10,17,2.10
2011,11,20,10,18,2.10
2011,11,20,10,19,2.10
2011,11,20,10,20,2.10
2011,11,20,10,21,2.10
2011,11,20,10,22,2.10
2011,11,20,10,23,2.10
2011,11,20,10,24,2.10
2011,11,20,10,25,2.10
2011,11,20,10,26,2.10
2011,11,20,10,27,2.10
2011,11,20,10,28,2.10
2011,11,20,10,29,2.10
2011,11,20,10,30,2.10
2011,11,20,10,31,2.10
2011,11,20,10,32,2.10
2011,11,20,10,33,2.10
2011,11,20,10,34,2.10
2011,11,20,10,35,2.10
2011,11,20,10,36,2.20
2011,11,20,10,37,2.20
2011,11,20,10,38,2.20
2011,11,20,10,39,2.20
2011,11,20,10,40,2.20
2011,11,20,10,41,2.20
2011,11,20,10,42,2.20
2011,11,20,10,43,2.20
2011,11,20,10,44,2.20
2011,11,20,10,45,2.20
2011,11,20,10,46,2.20
2011,11,20,10,47,2.30
2011,11,20,10,48,2.30
2011,11,20,10,49,2.30
2011,11,20,10,50,2.40
2011,11,20,10,51,2.40
2011,11,20,10,52,2.50
2011,11,20,10,53,2.50
2011,11,20,10,54,2.60
2011,11,20,10,55,2.70
2011,11,20,10,56,2.80
2011,11,20,10,57,2.80
2011,11,20,10,58,2.90
2011,11,20,10,59,2.90
2011,11,20,11,00,3.00
2011,11,20,11,01,3.00
2011,11,20,11,02,3.10
2011,11,20,11,03,3.10
2011,11,20,11,04,3.10
2011,11,20,11,05,3.10
2011,11,20,11,06,3.10
2011,11,20,11,07,3.10
2011,11,20,11,08,3.10
2011,11,20,11,09,3.00
2011,11,20,11,10,3.00
2011,11,20,11,11,2.90
2011,11,20,11,12,2.90
2011,11,20,11,13,2.90
2011,11,20,11,14,3.00
2011,11,20,11,15,3.00
2011,11,20,11,16,3.10
2011,11,20,11,17,3.10
2011,11,20,11,18,3.10
2011,11,20,11,19,3.10
2011,11,20,11,20,3.10
2011,11,20,11,21,3.20
2011,11,20,11,22,3.20
2011,11,20,11,23,3.20
2011,11,20,11,24,3.20
2011,11,20,11,25,3.20
2011,11,20,11,26,3.20
2011,11,20,11,27,3.20
2011,11,20,11,28,3.20
2011,11,20,11,29,3.20
2011,11,20,11,30,3.20
2011,11,20,11,31,3.20
2011,11,20,11,32,3.20
2011,11,20,11,33,3.20
2011,11,20,11,34,3.20
2011,11,20,11,35,3.20
2011,11,20,11,36,3.20
2011,11,20,11,37,3.20
2011,11,20,11,38,3.20
2011,11,20,11,39,3.30
2011,11,20,11,40,3.20
2011,11,20,11,41,3.20
2011,11,20,11,42,3.20
2011,11,20,11,43,3.20
2011,11,20,11,44,3.10
2011,11,20,11,45,3.10
2011,11,20,11,46,3.10
2011,11,20,11,47,3.20
2011,11,20,11,48,3.20
2011,11,20,11,49,3.20
2011,11,20,11,50,3.20
2011,11,20,11,51,3.20
2011,11,20,11,52,3.20
2011,11,20,11,53,3.20
2011,11,20,11,54,3.20
2011,11,20,11,55,3.20
2011,11,20,11,56,3.30
2011,11,20,11,57,3.20
2011,11,20,11,58,3.20
2011,11,20,11,59,3.20
2011,11,20,12,00,3.20
2011,11,20,12,01,3.20
2011,11,20,12,02,3.20
2011,11,20,12,03,3.20
2011,11,20,12,04,3.20
2011,11,20,12,05,3.30
2011,11,20,12,06,3.30
2011,11,20,12,07,3.30
2011,11,20,12,08,3.20
2011,11,20,12,09,3.20
2011,11,20,12,10,3.20
2011,11,20,12,11,3.20
2011,11,20,12,12,3.10
2011,11,20,12,13,3.10
2011,11,20,12,14,3.10
2011,11,20,12,15,3.10
2011,11,20,12,16,3.10
2011,11,20,12,17,3.10
2011,11,20,12,18,3.10
2011,11,20,12,19,3.10
2011,11,20,12,20,3.10
2011,11,20,12,21,3.10
2011,11,20,12,22,3.10
2011,11,20,12,23,3.10
2011,11,20,12,24,3.10
2011,11,20,12,25,3.20
2011,11,20,12,26,3.20
2011,11,20,12,27,3.20
2011,11,20,12,28,3.20
2011,11,20,12,29,3.20
2011,11,20,12,30,3.20
2011,11,20,12,31,3.20
2011,11,20,12,32,3.20
2011,11,20,12,33,3.20
2011,11,20,12,34,3.20
2011,11,20,12,35,3.20
2011,11,20,12,36,3.20
2011,11,20,12,37,3.20
2011,11,20,12,38,3.20
2011,11,20,12,39,3.30
2011,11,20,12,40,3.20
2011,11,20,12,41,3.20
2011,11,20,12,42,3.20
2011,11,20,12,43,3.20
2011,11,20,12,44,3.20
2011,11,20,12,45,3.20
2011,11,20,12,46,3.20
2011,11,20,12,47,3.20
2011,11,20,12,48,3.20
2011,11,20,12,49,3.20
2011,11,20,12,50,3.20
2011,11,20,12,51,3.20
2011,11,20,12,52,3.20
2011,11,20,12,53,3.20
2011,11,20,12,54,3.20
2011,11,20,12,55,3.20
2011,11,20,12,56,3.20
2011,11,20,12,57,3.20
2011,11,20,12,58,3.30
2011,11,20,12,59,3.30
2011,11,20,13,00,3.30
2011,11,20,13,01,3.30
2011,11,20,13,02,3.30
2011,11,20,13,03,3.30
2011,11,20,13,04,3.30
2011,11,20,13,05,3.30
2011,11,20,13,06,3.30
2011,11,20,13,07,3.30
2011,11,20,13,08,3.30
2011,11,20,13,09,3.30
2011,11,20,13,10,3.30
2011,11,20,13,11,3.40
2011,11,20,13,12,3.40
2011,11,20,13,13,3.40
2011,11,20,13,14,3.40
2011,11,20,13,15,3.40
2011,11,20,13,16,3.40
2011,11,20,13,17,3.40
2011,11,20,13,18,3.40
2011,11,20,13,19,3.50
2011,11,20,13,20,3.50
2011,11,20,13,21,3.50
2011,11,20,13,22,3.50
2011,11,20,13,23,3.50
2011,11,20,13,24,3.50
2011,11,20,13,25,3.50
2011,11,20,13,26,3.50
2011,11,20,13,27,3.50
2011,11,20,13,28,3.50
2011,11,20,13,29,3.50
2011,11,20,13,30,3.50
2011,11,20,13,31,3.50
2011,11,20,13,32,3.50
2011,11,20,13,33,3.40
2011,11,20,13,34,3.40
2011,11,20,13,35,3.40
2011,11,20,13,36,3.40
2011,11,20,13,37,3.30
2011,11,20,13,38,3.30
2011,11,20,13,39,3.30
2011,11,20,13,40,3.30
2011,11,20,13,41,3.30
2011,11,20,13,42,3.30
2011,11,20,13,43,3.30
2011,11,20,13,44,3.30
2011,11,20,13,45,3.30
2011,11,20,13,46,3.30
2011,11,20,13,47,3.30
2011,11,20,13,48,3.30
2011,11,20,13,49,3.30
2011,11,20,13,50,3.30
2011,11,20,13,51,3.30
2011,11,20,13,52,3.30
2011,11,20,13,53,3.30
2011,11,20,13,54,3.40
2011,11,20,13,55,3.40
2011,11,20,13,56,3.40
2011,11,20,13,57,3.40
2011,11,20,13,58,3.40
2011,11,20,13,59,3.40
2011,11,20,14,00,3.40
2011,11,20,14,01,3.40
2011,11,20,14,02,3.40
2011,11,20,14,03,3.40
2011,11,20,14,04,3.50
2011,11,20,14,05,3.50
2011,11,20,14,06,3.50
2011,11,20,14,07,3.40
2011,11,20,14,08,3.40
2011,11,20,14,09,3.40
2011,11,20,14,10,3.40
2011,11,20,14,11,3.40
2011,11,20,14,12,3.40
2011,11,20,14,13,3.40
2011,11,20,14,14,3.40
2011,11,20,14,15,3.30
2011,11,20,14,16,3.30
2011,11,20,14,17,3.30
2011,11,20,14,18,3.30
2011,11,20,14,19,3.30
2011,11,20,14,20,3.30
2011,11,20,14,21,3.30
2011,11,20,14,22,3.30
2011,11,20,14,23,3.30
2011,11,20,14,24,3.30
2011,11,20,14,25,3.30
2011,11,20,14,26,3.30
2011,11,20,14,27,3.30
2011,11,20,14,28,3.30
2011,11,20,14,29,3.30
2011,11,20,14,30,3.30
2011,11,20,14,31,3.30
2011,11,20,14,32,3.30
2011,11,20,14,33,3.30
2011,11,20,14,34,3.30
2011,11,20,14,35,3.30
2011,11,20,14,36,3.30
2011,11,20,14,37,3.30
2011,11,20,14,38,3.30
2011,11,20,14,39,3.30
2011,11,20,14,40,3.30
2011,11,20,14,41,3.30
2011,11,20,14,42,3.30
2011,11,20,14,43,3.30
2011,11,20,14,44,3.30
2011,11,20,14,45,3.30
2011,11,20,14,46,3.20
2011,11,20,14,47,3.20
2011,11,20,14,48,3.20
2011,11,20,14,49,3.20
2011,11,20,14,50,3.20
2011,11,20,14,51,3.20
2011,11,20,14,52,3.20
2011,11,20,14,53,3.20
2011,11,20,14,54,3.20
2011,11,20,14,55,3.10
2011,11,20,14,56,3.20
2011,11,20,14,57,3.20
2011,11,20,14,58,3.10
2011,11,20,14,59,3.10
2011,11,20,15,00,3.20
2011,11,20,15,01,3.20
2011,11,20,15,02,3.20
2011,11,20,15,03,3.20
2011,11,20,15,04,3.20
2011,11,20,15,05,3.20
2011,11,20,15,06,3.20
2011,11,20,15,07,3.20
2011,11,20,15,08,3.20
2011,11,20,15,09,3.20
2011,11,20,15,10,3.20
2011,11,20,15,11,3.20
2011,11,20,15,12,3.20
2011,11,20,15,13,3.20
2011,11,20,15,14,3.20
2011,11,20,15,15,3.20
2011,11,20,15,16,3.20
2011,11,20,15,17,3.20
2011,11,20,15,18,3.20
